GW4733 Weather Reports


time (UTC)temp
F
wind
direction
speed
knots
gust
knots
rain 1hr
in
rain 24hr
in
rain mn
in
humidity
%
barometer
mb
20260507162220 61 297 1.7 7.0 0.00 0.00 0.00 39 1012.0
20260507161717 61 317 3.5 5.2 0.00 0.00 0.00 38 1012.1
20260507161214 61 330 4.3 6.1 0.00 0.00 0.00 39 1012.1
20260507160709 60 323 1.7 7.8 0.00 0.00 0.00 44 1012.5
20260507160206 60 317 2.6 5.2 0.00 0.00 0.00 40 1012.4
20260507155702 59 150 1.7 3.5 0.00 0.00 0.00 45 1012.5
20260507155158 60 311 3.5 6.1 0.00 0.00 0.00 41 1012.6
20260507154655 60 314 3.5 3.5 0.00 0.00 0.00 46 1012.1
20260507154153 61 327 5.2 6.1 0.00 0.00 0.00 42 1012.5
20260507153649 59 296 7.0 11.3 0.00 0.00 0.00 48 1012.6
20260507153145 58 331 5.2 12.2 0.00 0.00 0.00 44 1012.4
20260507152642 59 317 4.3 5.2 0.00 0.00 0.00 46 1012.5
20260507152138 59 302 3.5 3.5 0.00 0.00 0.00 45 1012.6
20260507151634 60 324 2.6 5.2 0.00 0.00 0.00 44 1012.6
20260507151131 60 315 2.6 3.5 0.00 0.00 0.00 48 1012.7
20260507150628 58 294 4.3 5.2 0.00 0.00 0.00 46 1013.0
20260507150125 58 325 4.3 7.8 0.00 0.00 0.00 47 1013.1
20260507145625 57 295 1.7 3.5 0.00 0.00 0.00 48 1013.2
20260507145124 57 325 1.7 3.5 0.00 0.00 0.00 47 1013.2
20260507144619 58 315 3.5 6.1 0.00 0.00 0.00 47 1013.3
20260507144118 57 311 2.6 2.6 0.00 0.00 0.00 49 1013.3
20260507143614 57 314 2.6 2.6 0.00 0.00 0.00 50 1013.5
20260507143112 58 304 2.6 3.5 0.00 0.00 0.00 48 1013.3
20260507142607 56 314 4.3 6.1 0.00 0.00 0.00 55 1013.4
20260507142104 56 317 1.7 7.0 0.00 0.00 0.00 49 1013.6
20260507141600 55 293 3.5 5.2 0.00 0.00 0.00 51 1013.5
20260507141057 55 336 4.3 7.0 0.00 0.00 0.00 51 1013.9
20260507140553 55 322 4.3 5.2 0.00 0.00 0.00 49 1013.6
20260507140051 55 325 4.3 6.1 0.00 0.00 0.00 48 1013.9
20260507135548 56 332 2.6 6.1 0.00 0.00 0.00 51 1013.7
20260507135045 56 321 5.2 6.1 0.00 0.00 0.00 50 1013.9
20260507134542 56 319 3.5 3.5 0.00 0.00 0.00 54 1014.0
20260507134037 55 322 0.0 3.5 0.00 0.00 0.00 54 1014.0
20260507133534 55 308 3.5 7.0 0.00 0.00 0.00 54 1014.1
20260507133032 54 306 3.5 5.2 0.00 0.00 0.00 54 1014.2
20260507132528 54 330 3.5 6.1 0.00 0.00 0.00 58 1014.1
20260507132024 54 330 0.9 0.9 0.00 0.00 0.00 61 1014.0
20260507131522 54 331 1.7 5.2 0.00 0.00 0.00 60 1014.2
20260507131019 53 347 2.6 2.6 0.00 0.00 0.00 61 1014.1
20260507130516 53 330 3.5 5.2 0.00 0.00 0.00 58 1014.0
20260507130014 54 309 4.3 5.2 0.00 0.00 0.00 59 1014.2
20260507125512 54 324 3.5 7.0 0.00 0.00 0.00 58 1014.0
20260507125011 53 316 2.6 6.1 0.00 0.00 0.00 63 1014.1
20260507124505 53 318 1.7 2.6 0.00 0.00 0.00 61 1014.2
20260507124003 53 317 1.7 2.6 0.00 0.00 0.00 61 1013.9
20260507123501 53 317 1.7 2.6 0.00 0.00 0.00 61 1013.9
20260507122957 53 316 2.6 2.6 0.00 0.00 0.00 61 1014.1
20260507122452 53 316 1.7 2.6 0.00 0.00 0.00 61 1013.9
20260507121949 53 316 1.7 1.7 0.00 0.00 0.00 65 1014.0
20260507121444 53 316 0.0 0.0 0.00 0.00 0.00 60 1014.1
20260507120941 53 316 0.9 1.7 0.00 0.00 0.00 60 1013.8
20260507120437 53 316 0.0 0.0 0.00 0.00 0.00 61 1013.8
20260507115934 53 316 0.0 0.0 0.00 0.00 0.00 62 1013.8
20260507115430 53 316 0.0 0.9 0.00 0.00 0.00 63 1013.6
20260507114926 52 316 0.9 3.5 0.00 0.00 0.00 60 1013.8
20260507114423 52 316 2.6 3.5 0.00 0.00 0.00 63 1013.9
20260507113920 52 316 1.7 2.6 0.00 0.00 0.00 63 1013.6
20260507113417 52 316 1.7 2.6 0.00 0.00 0.00 61 1013.7
20260507112914 52 316 0.9 1.7 0.00 0.00 0.00 62 1013.8
20260507112412 52 316 1.7 1.7 0.00 0.00 0.00 63 1013.7
20260507111909 52 316 0.9 1.7 0.00 0.00 0.00 65 1013.9
20260507111406 52 316 1.7 1.7 0.00 0.00 0.00 63 1013.9
20260507110902 53 316 1.7 2.6 0.00 0.00 0.00 61 1013.6
20260507110358 54 316 0.0 0.0 0.00 0.00 0.00 60 1013.7
20260507105855 52 316 0.0 0.0 0.00 0.00 0.00 63 1013.6
20260507105352 52 316 0.0 0.0 0.00 0.00 0.00 65 1013.6
20260507104848 52 316 0.0 0.0 0.00 0.00 0.00 63 1013.7
20260507104345 52 316 0.0 0.9 0.00 0.00 0.00 61 1013.4
20260507103841 52 316 0.0 0.9 0.00 0.00 0.00 61 1013.2
20260507103338 52 316 0.0 1.7 0.00 0.00 0.00 61 1013.2
20260507102834 52 316 0.0 0.0 0.00 0.00 0.00 61 1013.0
20260507102331 52 316 0.9 1.7 0.00 0.00 0.00 60 1013.0
20260507101827 52 316 0.9 1.7 0.00 0.00 0.00 62 1013.2
20260507101327 52 316 0.9 1.7 0.00 0.00 0.00 64 1013.1
20260507100825 52 311 0.0 1.7 0.00 0.00 0.00 61 1012.9
20260507100323 52 311 1.7 1.7 0.00 0.00 0.00 63 1013.0
20260507095821 53 311 1.7 1.7 0.00 0.00 0.00 62 1012.9
20260507095317 54 311 1.7 2.6 0.00 0.00 0.00 59 1012.7
20260507094814 53 311 1.7 1.7 0.00 0.00 0.00 61 1012.8
20260507094310 53 311 1.7 2.6 0.00 0.00 0.00 59 1012.7
20260507093808 53 311 0.9 1.7 0.00 0.00 0.00 60 1012.6
20260507093306 53 310 0.9 1.7 0.00 0.00 0.00 60 1012.6
20260507092804 53 310 1.7 2.6 0.00 0.00 0.00 59 1012.6
20260507092300 53 310 2.6 2.6 0.00 0.00 0.00 60 1012.7
20260507091756 53 325 2.6 3.5 0.00 0.00 0.00 60 1012.7
20260507091253 54 318 2.6 7.0 0.00 0.00 0.00 60 1012.8
20260507090753 54 320 1.7 2.6 0.00 0.00 0.00 63 1012.9
20260507090250 53 315 1.7 2.6 0.00 0.00 0.00 66 1012.7
20260507085747 53 323 0.9 3.5 0.00 0.00 0.00 66 1012.7
20260507085244 54 321 2.6 5.2 0.00 0.00 0.00 65 1012.8
20260507084741 54 332 2.6 5.2 0.00 0.00 0.00 68 1012.8
20260507084237 54 309 3.5 6.1 0.00 0.00 0.00 71 1012.7
20260507083735 54 323 4.3 7.0 0.00 0.00 0.00 73 1012.5
20260507083231 54 332 3.5 6.1 0.00 0.00 0.00 73 1012.6
20260507082728 55 317 2.6 5.2 0.00 0.00 0.00 74 1012.8
20260507082223 54 321 2.6 3.5 0.00 0.00 0.00 78 1012.7
20260507081721 54 321 2.6 2.6 0.00 0.00 0.00 79 1012.6
20260507081216 55 321 1.7 1.7 0.00 0.00 0.00 76 1012.5
20260507080713 55 321 0.9 1.7 0.00 0.00 0.00 76 1012.2
20260507080209 54 321 0.9 1.7 0.00 0.00 0.00 78 1012.1
20260507075705 54 321 1.7 2.6 0.00 0.00 0.00 78 1012.2
20260507075201 55 321 2.6 2.6 0.00 0.00 0.00 76 1012.2
20260507074658 55 321 1.7 2.6 0.00 0.00 0.00 76 1011.9
20260507074156 54 320 1.7 2.6 0.00 0.00 0.00 78 1011.9
20260507073652 54 320 2.6 3.5 0.00 0.00 0.00 78 1012.0
20260507073148 55 327 1.7 3.5 0.00 0.00 0.00 77 1011.8
20260507072647 55 321 1.7 1.7 0.00 0.00 0.00 79 1012.0
20260507072143 54 320 1.7 2.6 0.00 0.00 0.00 80 1011.9
20260507071641 55 320 0.9 2.6 0.00 0.00 0.00 79 1011.7
20260507071137 55 320 1.7 2.6 0.00 0.00 0.00 78 1012.0
20260507070635 54 319 2.6 3.5 0.00 0.00 0.00 79 1011.9
20260507070132 54 320 2.6 3.5 0.00 0.00 0.00 79 1012.0
20260507065628 55 322 3.5 3.5 0.00 0.00 0.00 79 1011.9
20260507065125 55 323 3.5 3.5 0.00 0.00 0.00 76 1012.2
20260507064622 55 323 1.7 1.7 0.00 0.00 0.00 77 1012.3
20260507064121 55 323 1.7 2.6 0.00 0.00 0.00 78 1012.5
20260507063618 55 309 2.6 3.5 0.00 0.00 0.00 75 1012.3
20260507063115 55 326 3.5 5.2 0.00 0.00 0.00 75 1012.4
20260507062611 55 329 1.7 3.5 0.00 0.00 0.00 77 1012.4
20260507062109 55 331 1.7 5.2 0.00 0.00 0.00 76 1012.4
20260507061607 56 329 1.7 2.6 0.00 0.00 0.00 75 1012.8
20260507061105 55 318 2.6 3.5 0.00 0.00 0.00 76 1012.5
20260507060603 55 327 3.5 5.2 0.00 0.00 0.00 77 1012.5
20260507060059 56 303 4.3 5.2 0.00 0.00 0.00 75 1012.7
20260507055554 56 322 3.5 3.5 0.00 0.00 0.00 75 1012.5
20260507055050 55 316 2.6 3.5 0.00 0.00 0.00 77 1012.4
20260507054546 56 314 2.6 2.6 0.00 0.00 0.00 75 1012.5
20260507054044 56 332 3.5 3.5 0.00 0.00 0.00 77 1012.3
20260507053542 56 322 1.7 3.5 0.00 0.00 0.00 77 1012.2
20260507053040 56 323 3.5 3.5 0.00 0.00 0.00 78 1012.3
20260507052537 56 323 1.7 2.6 0.00 0.00 0.00 79 1012.1
20260507052034 56 337 1.7 1.7 0.00 0.00 0.00 83 1012.1
20260507051532 56 337 2.6 2.6 0.00 0.00 0.00 83 1012.2
20260507051028 56 337 1.7 2.6 0.00 0.00 0.00 82 1012.2
20260507050525 57 337 0.9 1.7 0.00 0.00 0.00 81 1012.1
20260507050021 56 337 0.9 2.6 0.00 0.00 0.00 83 1012.2
20260507045518 56 337 1.7 1.7 0.00 0.00 0.00 83 1012.2
20260507045015 57 337 2.6 5.2 0.00 0.00 0.00 82 1012.1
20260507044512 56 318 4.3 5.2 0.00 0.00 0.00 82 1012.2
20260507044008 56 315 1.7 3.5 0.00 0.00 0.00 83 1012.1
20260507043504 56 316 1.7 1.7 0.00 0.00 0.00 83 1011.9
20260507043001 56 316 0.9 2.6 0.00 0.00 0.00 83 1011.7
20260507042458 56 323 1.7 1.7 0.00 0.00 0.00 84 1012.0
20260507041953 56 324 1.7 3.5 0.00 0.00 0.00 84 1012.2
20260507041451 56 333 4.3 6.1 0.00 0.00 0.00 83 1012.1
20260507040948 56 308 4.3 7.0 0.00 0.00 0.00 83 1012.3
20260507040443 56 313 7.0 7.8 0.00 0.00 0.00 83 1012.2
20260507035939 56 328 5.2 6.1 0.00 0.13 0.13 84 1011.9
20260507035436 57 304 6.1 7.0 0.00 0.13 0.13 83 1012.0
20260507034933 56 338 4.3 6.1 0.00 0.13 0.13 84 1012.1
20260507034430 56 317 5.2 6.1 0.00 0.13 0.13 85 1012.0
20260507033928 57 308 7.8 7.8 0.00 0.13 0.13 84 1012.2
20260507033425 57 313 5.2 6.1 0.00 0.13 0.13 83 1012.1
20260507032922 56 321 5.2 8.7 0.00 0.13 0.13 84 1012.2
20260507032419 57 329 5.2 7.8 0.00 0.13 0.13 83 1012.2
20260507031915 57 315 7.8 7.8 0.00 0.13 0.13 82 1011.9
20260507031412 57 318 5.2 7.0 0.00 0.13 0.13 83 1012.2
20260507030909 57 318 6.1 7.0 0.00 0.13 0.13 82 1012.1
20260507030406 58 311 4.3 7.8 0.00 0.13 0.13 82 1012.1
20260507025903 58 324 6.1 8.7 0.00 0.13 0.13 80 1012.0
20260507025400 58 307 7.0 7.8 0.00 0.13 0.13 80 1011.9
20260507024858 58 307 7.8 9.6 0.00 0.13 0.13 80 1011.9
20260507024355 58 301 6.1 8.7 0.00 0.13 0.13 79 1011.8
20260507023850 58 311 7.8 11.3 0.00 0.13 0.13 81 1011.7
20260507023348 58 310 5.2 7.0 0.00 0.13 0.13 82 1011.6
20260507022845 59 300 7.8 9.6 0.00 0.13 0.13 80 1011.7
20260507022341 58 310 6.1 8.7 0.00 0.13 0.13 80 1011.5
20260507021837 59 324 5.2 7.0 0.00 0.13 0.13 80 1011.4
20260507021333 60 331 7.0 8.7 0.00 0.13 0.13 78 1011.5
20260507020831 59 332 3.5 5.2 0.00 0.13 0.13 78 1011.6
20260507020327 59 320 6.1 11.3 0.00 0.13 0.13 79 1011.4
20260507015824 59 314 4.3 7.0 0.00 0.13 0.13 78 1011.4
20260507015322 59 321 5.2 6.1 0.00 0.13 0.13 78 1011.5
20260507014819 60 320 0.9 3.5 0.00 0.13 0.13 78 1011.4
20260507014315 60 321 3.5 6.1 0.00 0.13 0.13 77 1011.5
20260507013812 60 317 3.5 5.2 0.00 0.13 0.13 79 1011.7
20260507013309 60 325 4.3 7.0 0.00 0.13 0.13 79 1011.4
20260507012807 60 316 6.1 6.1 0.00 0.13 0.13 81 1011.3
20260507012306 60 319 5.2 6.1 0.00 0.13 0.13 80 1010.9
20260507011800 61 319 2.6 6.1 0.00 0.13 0.13 79 1011.2
20260507011256 61 326 3.5 5.2 0.00 0.13 0.13 79 1011.3
20260507010756 61 326 0.9 1.7 0.00 0.13 0.13 80 1010.9
20260507010252 61 325 2.6 3.5 0.00 0.13 0.13 80 1010.9
20260507005750 61 322 3.5 7.0 0.00 0.13 0.13 79 1011.2
20260507005246 61 326 2.6 7.8 0.00 0.13 0.13 80 1011.4
20260507004742 62 316 4.3 6.1 0.00 0.13 0.13 81 1011.6
20260507004240 62 313 1.7 2.6 0.00 0.13 0.13 83 1011.3
20260507003736 62 313 2.6 2.6 0.00 0.13 0.13 83 1011.5
20260507003232 62 314 1.7 2.6 0.00 0.13 0.13 84 1011.1
20260507002728 62 313 1.7 2.6 0.00 0.13 0.13 84 1011.0
20260507002224 63 322 1.7 2.6 0.00 0.13 0.13 84 1011.0
20260507001721 62 322 0.9 1.7 0.00 0.13 0.13 85 1010.9
20260507001218 63 300 3.5 5.2 0.00 0.13 0.13 85 1010.9
20260507000714 63 312 3.5 6.1 0.00 0.13 0.13 85 1011.0
20260507000212 63 314 3.5 6.1 0.00 0.13 0.13 84 1010.6
20260506235707 63 313 4.3 6.1 0.00 0.13 0.13 84 1010.4
20260506235203 64 314 4.3 5.2 0.00 0.13 0.13 84 1010.4
20260506234700 64 316 4.3 5.2 0.00 0.13 0.13 85 1010.4
20260506234157 64 311 1.7 6.1 0.00 0.13 0.13 86 1010.4
20260506233654 64 333 3.5 6.1 0.00 0.13 0.13 86 1010.0
20260506233151 64 320 3.5 5.2 0.00 0.13 0.13 86 1009.9
20260506232647 65 334 6.1 7.8 0.00 0.13 0.13 86 1009.8
20260506232143 65 329 2.6 5.2 0.00 0.13 0.13 86 1009.6
20260506231640 65 320 3.5 5.2 0.00 0.13 0.13 87 1009.4
20260506231139 65 317 1.7 2.6 0.00 0.13 0.13 86 1009.5
20260506230635 65 317 0.9 3.5 0.00 0.13 0.13 86 1009.5
20260506230132 66 315 4.3 7.0 0.00 0.13 0.13 85 1009.7
20260506225628 67 323 6.1 7.0 0.00 0.13 0.13 85 1009.6
20260506225125 66 322 1.7 5.2 0.00 0.13 0.13 87 1009.3
20260506224621 66 323 4.3 5.2 0.00 0.13 0.13 87 1009.7
20260506224118 66 319 5.2 6.1 0.00 0.13 0.13 88 1009.6
20260506223614 66 316 3.5 5.2 0.00 0.13 0.13 88 1009.3
20260506223110 67 317 3.5 6.1 0.00 0.13 0.13 87 1009.3
20260506222608 67 317 3.5 6.1 0.00 0.13 0.13 89 1009.1
20260506222104 66 316 4.3 5.2 0.00 0.13 0.13 89 1009.0
20260506221602 66 325 2.6 3.5 0.00 0.13 0.13 89 1008.8
20260506221100 67 321 4.3 6.1 0.00 0.13 0.13 90 1009.1
20260506220555 68 314 1.7 3.5 0.00 0.13 0.13 87 1008.9
20260506220051 70 318 0.9 0.9 0.00 0.13 0.13 82 1008.7
20260506215548 69 312 1.7 1.7 0.00 0.13 0.13 83 1008.7
20260506215043 70 137 0.0 0.9 0.00 0.13 0.13 84 1008.6
20260506214541 69 137 0.0 0.9 0.00 0.13 0.13 85 1008.5
20260506214038 69 139 0.9 1.7 0.00 0.13 0.13 82 1008.6
20260506213536 69 334 0.0 0.0 0.00 0.13 0.13 84 1008.7
20260506213033 69 334 0.0 0.0 0.00 0.13 0.13 85 1008.7
20260506212529 68 334 0.0 0.0 0.00 0.13 0.13 86 1008.6
20260506212024 68 334 0.0 0.0 0.00 0.13 0.13 87 1008.5
20260506211521 68 334 0.0 0.0 0.00 0.13 0.13 86 1008.4
20260506211018 68 334 0.0 0.0 0.00 0.13 0.13 84 1008.3
20260506210514 69 327 0.9 0.9 0.00 0.13 0.13 84 1008.0
20260506210011 68 128 0.0 0.9 0.00 0.13 0.13 85 1008.1
20260506205508 68 134 0.0 0.9 0.00 0.13 0.13 87 1008.2
20260506205003 68 106 0.0 0.0 0.00 0.13 0.13 86 1008.0
20260506204502 68 132 0.9 3.5 0.00 0.13 0.13 87 1008.1
20260506203958 67 126 0.9 2.6 0.00 0.13 0.13 87 1007.9
20260506203456 66 286 0.9 0.9 0.00 0.13 0.13 90 1007.9
20260506202952 66 296 0.0 0.0 0.00 0.13 0.13 90 1007.9
20260506202450 66 296 0.0 0.9 0.00 0.13 0.13 90 1008.1
20260506201946 66 297 0.0 0.9 0.00 0.13 0.13 92 1007.9
20260506201444 65 297 0.0 0.0 0.00 0.13 0.13 92 1008.0
20260506200940 65 297 0.0 0.0 0.00 0.13 0.13 93 1008.1
20260506200436 65 297 0.0 0.9 0.00 0.13 0.13 94 1008.0
20260506195933 65 297 0.0 0.0 0.00 0.13 0.13 94 1008.0
20260506195430 65 297 0.0 0.0 0.00 0.13 0.13 94 1008.0
20260506194927 65 297 0.0 0.0 0.00 0.13 0.13 94 1008.1
20260506194424 65 297 0.0 0.9 0.00 0.13 0.13 94 1008.1
20260506193921 65 296 0.9 0.9 0.00 0.13 0.13 93 1008.0
20260506193418 65 297 0.9 0.9 0.00 0.13 0.13 93 1008.2
20260506192914 65 297 0.0 0.9 0.00 0.13 0.13 91 1008.2
20260506192411 66 296 1.7 1.7 0.00 0.13 0.13 89 1008.4
20260506191908 67 296 0.0 0.0 0.00 0.13 0.13 89 1008.2
20260506191404 67 296 0.0 0.0 0.00 0.13 0.13 89 1008.4
20260506190902 67 296 0.0 0.0 0.00 0.13 0.13 90 1008.4
20260506190358 67 296 0.0 0.0 0.00 0.13 0.13 89 1008.2
20260506185855 67 296 0.0 0.0 0.00 0.13 0.13 88 1008.4
20260506185352 67 296 0.0 0.0 0.00 0.13 0.13 88 1008.5
20260506184849 67 296 0.0 0.0 0.00 0.13 0.13 88 1008.4
20260506184346 67 296 0.0 0.0 0.00 0.13 0.13 90 1008.3
20260506183843 66 296 0.0 0.0 0.00 0.13 0.13 89 1008.1
20260506183338 66 296 0.0 0.0 0.00 0.13 0.13 90 1008.5
20260506182836 66 297 0.0 0.0 0.00 0.13 0.13 92 1008.4
20260506182333 65 297 0.0 0.0 0.00 0.13 0.13 92 1008.3
20260506181830 65 297 0.0 0.0 0.00 0.13 0.13 91 1008.4
20260506181328 65 297 0.0 0.0 0.00 0.13 0.13 92 1008.6
20260506180825 65 297 0.0 0.0 0.00 0.13 0.13 91 1008.6
20260506180321 65 297 0.0 0.0 0.00 0.13 0.13 91 1008.5
20260506175817 65 297 0.0 0.0 0.00 0.13 0.13 90 1008.6
20260506175315 66 297 0.9 1.7 0.00 0.13 0.13 88 1008.5
20260506174812 66 297 0.0 0.0 0.00 0.13 0.13 87 1008.7
20260506174309 66 297 0.0 0.9 0.00 0.13 0.13 85 1008.7
20260506173806 66 297 0.0 1.7 0.00 0.13 0.13 85 1008.6
20260506173303 66 112 0.0 1.7 0.00 0.13 0.13 86 1008.4
20260506172800 66 96 2.6 2.6 0.00 0.13 0.13 83 1008.4
20260506172256 66 142 0.9 1.7 0.00 0.13 0.13 83 1008.6
20260506171754 66 114 0.0 1.7 0.00 0.13 0.13 82 1008.5
20260506171251 67 140 0.9 1.7 0.00 0.13 0.13 83 1008.5
20260506170749 67 165 0.0 1.7 0.00 0.13 0.13 81 1008.3
20260506170245 67 69 0.9 1.7 0.00 0.13 0.13 82 1008.3
20260506165744 68 69 0.0 2.6 0.00 0.13 0.13 81 1008.4
20260506165240 68 315 3.5 5.2 0.00 0.13 0.13 81 1008.6
20260506164738 69 331 0.0 0.9 0.00 0.13 0.13 80 1008.3
20260506164234 69 312 0.0 2.6 0.00 0.13 0.13 80 1008.4
20260506163731 69 165 1.7 2.6 0.00 0.13 0.13 78 1008.5
20260506163226 68 125 0.0 2.6 0.00 0.13 0.13 80 1008.4
20260506162722 67 307 5.2 7.0 0.00 0.13 0.13 82 1008.5